Kamloops,

8:22 AM PDT on May 23, 2017 (GMT -0700)
Kamloops

Weather History for CYKA - June, 2013

Change the Weather History Date:

Sunday, June 16, 2013

  Actual Average Record
Temperature  
Mean Temperature 68 °F -  
Max Temperature 84 °F 81 °F 89 °F (2015)
Min Temperature 53 °F 54 °F 41 °F (2016)
Cooling Degree Days 4    
Growing Degree Days 18 (Base 50)    
Moisture  
Dew Point 47 °F    
Average Humidity 49    
Maximum Humidity 77    
Minimum Humidity 25    
Precipitation  
Precipitation 0.00 in 0.04 in - ()
Sea Level Pressure  
Sea Level Pressure 30.03 in    
Wind  
Wind Speed 6 mph ()    
Max Wind Speed 36 mph    
Max Gust Speed 44 mph    
Averages and records for this station are not official NWS values.
T = Trace of Precipitation, MM = Missing Value Source: Averaged Metar Reports

Daily Weather History Graph

Daily Weather History Graph

Search for Another Location

Airport or City:

Trip Planner

Search our weather history database for the weather conditions in past years. The results will help you decide how hot, cold, wet, or windy it might be!

Date:

Astronomy

Jun. 16, 2013 Rise Set
Actual Time 4:48 AM PDT 9:17 PM PDT
Civil Twilight 4:02 AM PDT 10:02 PM PDT
Nautical Twilight 2:53 AM PDT 11:12 PM PDT
Astronomical Twilight 1:34 AM PDT 12:30 AM PDT
Moon 1:17 PM PDT (6/16) 12:39 AM PDT (6/16)
Length of Visible Light 18h 00m
Length of Day
16h 28m
Waxing Crescent, 51% of the Moon is Illuminated
Jun 16
Waxing Crescent
Jun 23
Full
Jun 29
Last Quarter
Jul 8
New
Jul 15
First Quarter

Hourly Weather History & Observations

Time (PDT) Temp. Dew Point Humidity Pressure Visibility Wind Dir Wind Speed Gust Speed Precip Events Conditions
12:00 AM 62.6 °F 48.2 °F 59% 30.02 in 40.0 mi ESE 5.8 mph - N/A   Scattered Clouds
1:00 AM 57.2 °F 46.4 °F 67% 30.04 in 40.0 mi East 6.9 mph - N/A   Clear
2:00 AM 57.2 °F 46.4 °F 67% 30.05 in 40.0 mi Calm Calm - N/A   Clear
3:00 AM 55.4 °F 44.6 °F 67% 30.06 in 40.0 mi East 3.5 mph - N/A   Partly Cloudy
4:00 AM 55.4 °F 48.2 °F 77% 30.07 in 40.0 mi SSW 3.5 mph - N/A   Mostly Cloudy
5:00 AM 56 °F 47 °F 62% 30.08 in 37 mi ENE 1.2 mph - -   Mostly Cloudy
5:00 AM 55.4 °F 46.4 °F 72% 30.07 in 40.0 mi East 3.5 mph - N/A   Mostly Cloudy
6:00 AM 55.4 °F 46.4 °F 72% 30.09 in 40.0 mi ESE 4.6 mph - N/A   Scattered Clouds
7:00 AM 59.0 °F 48.2 °F 67% 30.09 in 40.0 mi East 5.8 mph - N/A   Scattered Clouds
8:00 AM 62.6 °F 48.2 °F 59% 30.10 in 40.0 mi ESE 4.6 mph - N/A   Mostly Cloudy
9:00 AM 64.4 °F 48.2 °F 56% 30.10 in 40.0 mi SE 4.6 mph - N/A   Scattered Clouds
10:00 AM 68.0 °F 48.2 °F 49% 30.08 in 40.0 mi SSW 3.5 mph - N/A   Partly Cloudy
11:00 AM 72 °F 48 °F 31% 30.06 in 37 mi South 3.5 mph - -   Scattered Clouds
11:00 AM 71.6 °F 48.2 °F 43% 30.06 in 40.0 mi South 4.6 mph - N/A   Scattered Clouds
12:00 PM 73.4 °F 48.2 °F 41% 30.03 in 40.0 mi South 4.6 mph - N/A   Scattered Clouds
1:00 PM 78.8 °F 46.4 °F 32% 30.02 in 40.0 mi South 4.6 mph - N/A   Scattered Clouds
2:00 PM 80.6 °F 42.8 °F 26% 29.99 in 40.0 mi NNW 2.3 mph - N/A   Mostly Cloudy
3:00 PM 84.2 °F 44.6 °F 25% 29.97 in 40.0 mi SE 3.5 mph - N/A   Mostly Cloudy
4:00 PM 82.4 °F 44.6 °F 26% 29.96 in 40.0 mi SE 5.8 mph - N/A   Mostly Cloudy
4:49 PM 73.4 °F 46.4 °F 38% 29.98 in 40.0 mi South 35.7 mph 43.7 mph N/A   Mostly Cloudy
5:00 PM 72 °F 46 °F 28% 29.98 in 28 mi South 32.2 mph - -   Partly Cloudy
5:00 PM 71.6 °F 46.4 °F 41% 29.98 in 30.0 mi South 31.1 mph 40.3 mph N/A   Mostly Cloudy
5:32 PM 71.6 °F 46.4 °F 41% 30.00 in 30.0 mi SSE 24.2 mph 43.7 mph N/A Rain Light Rain Showers
6:00 PM 69.8 °F 44.6 °F 40% 30.00 in 40.0 mi SSE 20.7 mph 35.7 mph N/A Rain Light Rain Showers
6:29 PM 73.4 °F 42.8 °F 33% 29.96 in 40.0 mi SE 18.4 mph 28.8 mph N/A   Overcast
7:00 PM 71.6 °F 46.4 °F 41% 30.00 in 40.0 mi ESE 11.5 mph - N/A   Mostly Cloudy
8:00 PM 69.8 °F 46.4 °F 43% 30.01 in 40.0 mi North 2.3 mph - N/A   Mostly Cloudy
9:00 PM 66.2 °F 50.0 °F 56% 30.02 in 40.0 mi SSW 4.6 mph - N/A   Mostly Cloudy
10:00 PM 64.4 °F 50.0 °F 59% 30.03 in 40.0 mi WSW 4.6 mph - N/A   Mostly Cloudy
11:00 PM 65 °F 50 °F 47% 30.02 in 37 mi WSW 1.2 mph - -   Partly Cloudy
11:00 PM 64.4 °F 50.0 °F 59% 30.02 in 40.0 mi Calm Calm - N/A   Mostly Cloudy